Location: Erfurt
(50.9688°N, 11.0193°E)
Time: 01:39:07
(UTC+02:00)

ISS - Visible Passes

Search period start: 22 October 2019 00:00
Search period end: 31 October 2019 23:00
Orbit: 411 x 421 km, 51.6° (Epoch: 21 October)

Date Brightness Start Highest point End Pass type
(mag) Time Alt. Az. Time Alt. Az. Time Alt. Az.
24 Oct -0.6 06:50:57 10° SSE 06:52:21 12° SE 06:53:45 10° ESE visible
26 Oct -1.6 06:48:41 10° SSW 06:51:29 24° SE 06:54:17 10° E visible
27 Oct -1.1 05:00:47 10° S 05:03:03 17° SE 05:05:19 10° E visible
28 Oct -0.7 04:14:38 11° SE 04:14:39 11° SE 04:15:46 10° ESE visible
28 Oct -2.8 05:47:33 10° SW 05:50:44 45° SSE 05:53:59 10° E visible
29 Oct -2.3 05:01:14 27° S 05:02:11 32° SSE 05:05:15 10° E visible
30 Oct -1.2 04:14:50 19° ESE 04:14:50 19° ESE 04:16:25 10° E visible
30 Oct -3.7 05:47:44 18° WSW 05:50:04 76° SSE 05:53:27 10° ENE visible
31 Oct -3.5 05:01:13 57° S 05:01:26 59° SSE 05:04:46 10° E visible
